Chico, CA

4:32 PM PDT on March 27, 2017 (GMT -0700)
Chico Municipal

Weather History for KCIC - March, 2014

Change the Weather History Date:

Saturday, March 29, 2014

  Actual Average (KOVE) Record (KOVE)
Temperature  
Mean Temperature 52 °F -  
Max Temperature 57 °F 70 °F 84 °F (2015)
Min Temperature 46 °F 44 °F 34 °F (1967)
Degree Days  
Heating Degree Days 12    
Growing Degree Days 2 (Base 50)    
Moisture  
Dew Point 51 °F    
Average Humidity 92    
Maximum Humidity 100    
Minimum Humidity 76    
Precipitation  
Precipitation 1.12 in - - ()
Sea Level Pressure  
Sea Level Pressure 30.00 in    
Wind  
Wind Speed 16 mph (SE)    
Max Wind Speed 24 mph    
Max Gust Speed 32 mph    
Visibility 9 miles    
Events Rain    
Averages and records for this station are not official NWS values.
T = Trace of Precipitation, MM = Missing Value Source: NWS Daily Summary

Daily Weather History Graph

Daily Weather History Graph

Search for Another Location

Airport or City:

Trip Planner

Search our weather history database for the weather conditions in past years. The results will help you decide how hot, cold, wet, or windy it might be!

Date:

Astronomy

Mar. 29, 2014 Rise Set
Actual Time 6:56 AM PDT 7:28 PM PDT
Civil Twilight 6:29 AM PDT 7:55 PM PDT
Nautical Twilight 5:57 AM PDT 8:27 PM PDT
Astronomical Twilight 5:24 AM PDT 9:00 PM PDT
Moon 6:08 AM PDT (3/29) 6:40 PM PDT (3/29)
Length of Visible Light 13h 26m
Length of Day
12h 32m
Waning Crescent, 1% of the Moon is Illuminated
Mar 29
Waning Crescent
Mar 30
New
Apr 7
First Quarter
Apr 15
Full
Apr 22
Last Quarter

Hourly Weather History & Observations

Time (PDT) Temp. Windchill Dew Point Humidity Pressure Visibility Wind Dir Wind Speed Gust Speed Precip Events Conditions
12:15 AM 55.4 °F - 51.8 °F 88% 30.06 in 10.0 mi SE 13.8 mph - 0.01 in   Overcast
12:35 AM 55.4 °F - 51.8 °F 88% 30.06 in 10.0 mi SE 12.7 mph - 0.03 in   Overcast
12:55 AM 55.4 °F - 51.8 °F 88% 30.05 in 10.0 mi SE 17.3 mph - 0.05 in   Overcast
1:15 AM 55.4 °F - 51.8 °F 88% 30.05 in 10.0 mi SE 18.4 mph - 0.02 in   Overcast
1:35 AM 55.4 °F - 51.8 °F 88% 30.05 in 10.0 mi SE 18.4 mph - 0.06 in   Overcast
1:55 AM 55.4 °F - 51.8 °F 88% 30.06 in 10.0 mi SE 17.3 mph - 0.10 in   Overcast
2:15 AM 53.6 °F - 51.8 °F 94% 30.05 in 9.0 mi SE 19.6 mph - 0.03 in   Overcast
2:35 AM 53.6 °F - 53.6 °F 100% 30.05 in 8.0 mi SE 16.1 mph - 0.07 in   Overcast
2:55 AM 53.6 °F - 51.8 °F 94% 30.05 in 10.0 mi SE 21.9 mph 25.3 mph 0.10 in   Overcast
3:15 AM 53.6 °F - 51.8 °F 94% 30.04 in 10.0 mi SE 20.7 mph - 0.01 in   Overcast
3:35 AM 53.6 °F - 53.6 °F 100% 30.03 in 10.0 mi SE 20.7 mph 25.3 mph 0.03 in   Overcast
3:55 AM 53.6 °F - 51.8 °F 94% 30.02 in 10.0 mi SE 19.6 mph - 0.03 in   Overcast
4:15 AM 53.6 °F - 51.8 °F 94% 30.01 in 10.0 mi SE 23.0 mph 32.2 mph 0.01 in   Overcast
4:35 AM 53.6 °F - 51.8 °F 94% 29.99 in 10.0 mi SE 24.2 mph 29.9 mph 0.01 in   Overcast
4:55 AM 53.6 °F - 51.8 °F 94% 30.00 in 10.0 mi SE 20.7 mph 27.6 mph 0.02 in   Overcast
5:15 AM 53.6 °F - 51.8 °F 94% 30.00 in 10.0 mi SE 21.9 mph - N/A   Overcast
5:35 AM 53.6 °F - 51.8 °F 94% 30.00 in 10.0 mi SE 17.3 mph 27.6 mph 0.01 in   Overcast
5:55 AM 53.6 °F - 51.8 °F 94% 30.00 in 10.0 mi SE 19.6 mph - 0.01 in   Overcast
6:15 AM 53.6 °F - 51.8 °F 94% 30.00 in 8.0 mi SE 19.6 mph 26.5 mph 0.01 in   Overcast
6:35 AM 53.6 °F - 51.8 °F 94% 30.00 in 10.0 mi SE 17.3 mph 28.8 mph 0.02 in   Overcast
6:54 AM 53.6 °F - 51.8 °F 94% 30.00 in 3.0 mi SE 23.0 mph 28.8 mph N/A   Overcast
7:55 AM 53.6 °F - 53.6 °F 100% 30.01 in 1.5 mi SE 23.0 mph 28.8 mph N/A   Overcast
7:58 AM 53.6 °F - 53.6 °F 100% 30.01 in 2.0 mi SE 23.0 mph 28.8 mph N/A   Overcast
8:49 AM 53.6 °F - 53.6 °F 100% 30.02 in - SE 17.3 mph 23.0 mph N/A   Overcast
9:34 AM 53.6 °F - 53.6 °F 100% 30.01 in 10.0 mi SE 17.3 mph 24.2 mph N/A   Unknown
9:51 AM 53.6 °F - 53.6 °F 100% 30.03 in 10.0 mi SE 23.0 mph 24.2 mph N/A Rain Light Rain
10:52 AM 53.6 °F - 53.6 °F 100% 30.02 in 3.0 mi SE 17.3 mph 23.0 mph N/A Rain Light Rain
11:50 AM 53.6 °F - 53.6 °F 100% 30.03 in 3.0 mi SSE 11.5 mph - N/A Rain Light Rain
12:50 PM 55.4 °F - 55.4 °F 100% 30.02 in 8.0 mi SE 11.5 mph - N/A   Overcast
2:00 PM 55.4 °F - 55.4 °F 100% 30.01 in 10.0 mi SE 11.5 mph - N/A   Overcast
2:55 PM 55.4 °F - 53.6 °F 94% 29.99 in 10.0 mi SE 17.3 mph - N/A   Overcast
3:49 PM 57.2 °F - 53.6 °F 88% 29.97 in 10.0 mi SSE 11.5 mph - N/A   Mostly Cloudy
4:49 PM 57.2 °F - 51.8 °F 82% 29.97 in 25.0 mi SE 17.3 mph - N/A   Overcast
6:55 PM 55.4 °F - 50.0 °F 82% 29.94 in 10.0 mi SE 15.0 mph - N/A   Mostly Cloudy
7:15 PM 55.4 °F - 50.0 °F 82% 29.94 in 10.0 mi SE 18.4 mph - N/A   Overcast
7:35 PM 53.6 °F - 50.0 °F 88% 29.94 in 10.0 mi SE 12.7 mph - N/A   Overcast
7:55 PM 53.6 °F - 50.0 °F 88% 29.94 in 10.0 mi SE 17.3 mph - N/A   Overcast
8:15 PM 53.6 °F - 50.0 °F 88% 29.93 in 10.0 mi SE 18.4 mph 21.9 mph N/A   Mostly Cloudy
8:35 PM 53.6 °F - 51.8 °F 94% 29.95 in 10.0 mi SSE 11.5 mph - N/A   Overcast
8:55 PM 53.6 °F - 51.8 °F 94% 29.96 in 7.0 mi SE 9.2 mph - 0.14 in   Overcast
9:15 PM 50.0 °F - 50.0 °F 100% 29.96 in 1.0 mi ESE 10.4 mph 19.6 mph 0.58 in   Overcast
9:35 PM 51.8 °F - 50.0 °F 94% 29.96 in 10.0 mi SE 5.8 mph - 0.64 in   Overcast
9:55 PM 51.8 °F - 48.2 °F 88% 29.97 in 10.0 mi NNE 10.4 mph - 0.64 in   Overcast
10:15 PM 50.0 °F - 46.4 °F 87% 29.97 in 10.0 mi ENE 9.2 mph - 0.01 in   Overcast
10:35 PM 48.2 °F - 42.8 °F 82% 29.99 in 10.0 mi NE 12.7 mph - 0.01 in   Overcast
10:55 PM 48.2 °F - 41.0 °F 76% 29.99 in 10.0 mi East 10.4 mph - 0.01 in   Overcast
11:15 PM 48.2 °F - 41.0 °F 76% 29.98 in 10.0 mi East 6.9 mph - N/A   Overcast
11:35 PM 48.2 °F - 41.0 °F 76% 29.97 in 10.0 mi ESE 6.9 mph - N/A   Overcast
11:55 PM 46.4 °F 42.9 °F 44.6 °F 93% 29.98 in 10.0 mi SSE 6.9 mph - N/A   Overcast